ASTRA 2F (38778 NORAD) Tracking and Keplerian Element Data

This shows tracking and keplerian element data for the satellite.

Feedback or suggestion? Click here.




ElementValue
Catalog38778
NameASTRA 2F
Epoch Orbit4529
Epoch Day34.90350983
Epoch Year2025
RAAN257.0035
Inclination0.0717
Eccentricity0.0003398
Argument of Perigee3.454
Mean Anonmoly227.2561
Mean Motion1.00269496
Decay Rate1.54E-06
L11 38778U 12051A 25034.90350983 .00000154 00000+0 00000+0 0 9991
L22 38778 0.0717 257.0035 0003398 3.4540 227.2561 1.00269496 45293



Live tracking and technical data element details for ASTRA 2F (NORAD 38778). ASTRA 2F can be tracked NOW for your location showing map with azimuth and elevation plus other details from your city location.







IsCatalogInMostPopularTable: catalog: 38778, numindb: 385
Update: records affected: 1



GetName: 38778 ASTRA 2F

Hit Count: updated at: Thu, 15 May 2025 19:52:17 GMT